Regional Weather Roundup
Issued by NWS

Home | Current Version | Previous Version | Text Only | Print | Product List | Glossary On
Versions: 1 2 3 4 5 6 7 8 9 10 11 12 13 14 15 16 17 18 19 20 21 22 23 24 25 26 27 28 29 30 31 32 33 34 35 36 37 38 39 40 41 42 43 44 45 46 47 48 49 50
000
ASUS42 KFFC 251203
RWRGA
WEATHER ROUNDUP FOR GEORGIA
NATIONAL WEATHER SERVICE PEACHTREE CITY GA
800 AM EDT SUN SEP 25 2016

NOTE: "FAIR" INDICATES FEW OR NO CLOUDS BELOW 12,000 FEET WITH NO
SIGNIFICANT WEATHER AND/OR OBSTRUCTIONS TO VISIBILITY.

* = USE WITH CAUTION. THE STATIONS MARKED WITH AN ASTERISK MAY NOT
REPORT WEATHER SUCH AS PRECIPITATION, FOG, OR THUNDER AND ARE NOT
QUALITY CONTROLLED BY NWS.

THE REMARK "TC" DENOTES TEMPERATURE READING IN DEGREES CELSIUS.

GAZ001>058-251300-
NORTH GEORGIA

CITY           SKY/WX    TMP DP  RH WIND       PRES   REMARKS
ATLANTA        PTCLDY    70  66  87 CALM      30.10R
6HR MIN TEMP:  70; 6HR MAX TEMP:  76;

ATHENS         CLEAR     66  64  93 CALM      30.11R
6HR MIN TEMP:  64; 6HR MAX TEMP:  70;

CHAMBLEE       CLEAR     68  64  87 CALM      30.11R
6HR MIN TEMP:  65; 6HR MAX TEMP:  74;

PEACHTREE CITY CLEAR     66  65  96 CALM      30.11R
6HR MIN TEMP:  65; 6HR MAX TEMP:  68;

ROME           CLEAR     64  60  87 CALM      30.10R
6HR MIN TEMP:  63; 6HR MAX TEMP:  70;

WEST ATLANTA   CLEAR     65  63  93 CALM      30.11R
6HR MIN TEMP:  65; 6HR MAX TEMP:  70;

GAINESVILLE    CLEAR     69  65  86 CALM      30.15R
6HR MIN TEMP:  67; 6HR MAX TEMP:  73;

CARTERSVILLE   CLEAR     68  66  93 VRB3      30.10R
6HR MIN TEMP:  63; 6HR MAX TEMP:  68;



CITY           SKY/WX    TMP DP  RH WIND       PRES   REMARKS
DALTON*        CLEAR     63  63 100 CALM      30.12R
LAWRENCEVILLE* CLEAR     64  63  94 CALM      30.11R
MARIETTA       PTCLDY    67  64  91 SE2       30.11R
KENNESAW*      CLEAR     66  63  88 CALM      30.10R
CANTON*        CLEAR     63  59  88 CALM      30.14R
BLAIRSVILLE*     N/A    N/A N/A N/A MISG      30.18R
$$

GAZ059>098-102>109-251300-
CENTRAL GEORGIA

CITY           SKY/WX    TMP DP  RH WIND       PRES   REMARKS
AUGUSTA-BUSH   CLEAR     64  64 100 CALM      30.09R
6HR MIN TEMP:  63; 6HR MAX TEMP:  67;

AUGUSTA-DANIEL CLEAR     73  66  78 CALM      30.11R
6HR MIN TEMP:  71; 6HR MAX TEMP:  76;

COLUMBUS       CLEAR     70  65  84 CALM      30.07R
6HR MIN TEMP:  70; 6HR MAX TEMP:  75;

MACON          CLOUDY    68  66  93 CALM      30.08R
6HR MIN TEMP:  67; 6HR MAX TEMP:  71;

ROBINS AFB     CLOUDY    69  68  96 CALM      30.08R


CITY           SKY/WX    TMP DP  RH WIND       PRES   REMARKS
LAGRANGE*      CLEAR     67  67 100 CALM      30.09R
MILLEDGEVILLE* CLOUDY    70  70 100 CALM      30.10R
$$

GAZ099>101-110>166-251300-
SOUTH GEORGIA

CITY           SKY/WX    TMP DP  RH WIND       PRES   REMARKS
SAVANNAH       MOCLDY    74  72  93 N5        30.08R
6HR MIN TEMP:  72; 6HR MAX TEMP:  74;

VALDOSTA       CLEAR     72  72 100 CALM      30.07R
6HR MIN TEMP:  71; 6HR MAX TEMP:  73;

ALMA           FOG       69  69 100 CALM      30.07R VSB 1/2
6HR MIN TEMP:  68; 6HR MAX TEMP:  73;

ST SIMONS      CLEAR     74  72  93 NW5       30.05S FOG
6HR MIN TEMP:  73; 6HR MAX TEMP:  75;

FT STEWART     PTCLDY    72  70  94 CALM      30.05R
ALBANY         CLEAR     71  68  90 CALM      30.08R
HUNTER AFB     MOCLDY    75  75 100 NW6       30.05R
MOODY AFB      MOCLDY    73  70  91 E1        30.06R
BRUNSWICK      CLEAR     72  72 100 CALM      30.07R FOG


CITY           SKY/WX    TMP DP  RH WIND       PRES   REMARKS
BAINBRIDGE*    CLEAR     72  70  94 CALM      30.06R FOG
MOULTRIE*      CLEAR     72  70  94 CALM      30.08R
VIDALIA*       CLEAR     73  73 100 CALM      30.09R
WAYCROSS*      PTCLDY    73  73 100 CALM      30.07R FOG
DOUGLAS*       CLOUDY    72  70  94 CALM      30.09R FOG
$$



USA.gov is the U.S. government's official web portal to all federal, state and local government web resources and services.